Flag for U.S.A. Weather past 2 weeks in Garden Grove, California, U.S.A.

56 °F

Passing clouds.

Feels Like: 55 °F
Forecast: 47 / 63 °F
Wind: 5 mph from West

Location: Fullerton Municipal Airport

Current Time: Nov 25, 2015 at 4:32:46 AM

Latest Report: Nov 25, 2015 at 3:53 AM

Visibility: 10 mi

Pressure: 29.84 "Hg

Humidity: 65%

Dew point: 44 °F

Location of Garden GroveLocation

Historic Weather in Garden Grove — Graph


Garden Grove temperature yesterday

Maximum temperature yesterday: 70 °F (at 11:53 AM)
Minimum temperature yesterday: 53 °F (at 2:53 AM)
Average temperature yesterday: 60 °F

Past Weeks' High & Low Weather Summary

High89 °F (Nov 21, 2:53 PM)90% (Nov 25, 1:53 AM)30.29 "Hg (Nov 25, 1:53 AM)
Low41 °F (Nov 17, 5:53 AM)7% (Nov 12, 2:53 PM)29.84 "Hg (Nov 25, 2:53 AM)
Average62 °F43%29.97 "Hg
* Reported Nov 10 2:53 AM — Nov 25 2:53 AM, Garden Grove, Weather by CustomWeather, © 2015

Note: Actual official high and low records may vary slightly from our data, if they occured in-between our weather recording intervals... More about our weather records


Garden Grove weather history for previous 24 hours

Time TempWeatherWind HumidityBarometerVisibility
2:53 AM
Wed, Nov 25
58 °FOvercast.7 mph67%29.84 "Hg10 mi
1:53 AM58 °FLight rain. Mostly cloudy.5 mph90%29.84 "Hg9 mi
12:53 AM59 °FLight rain. Mostly cloudy.3 mph78%29.85 "Hg7 mi
11:53 PM
Tue, Nov 24
59 °FMostly cloudy.No wind78%29.87 "Hg10 mi
10:53 PM60 °FLight rain. Mostly cloudy.No wind72%29.88 "Hg10 mi
9:53 PM59 °FPassing clouds.No wind72%29.88 "Hg10 mi
8:53 PM60 °FPassing clouds.No wind69%29.89 "Hg10 mi
7:53 PM60 °FPassing clouds.No wind69%29.89 "Hg10 mi
6:53 PM60 °FClear.No wind72%29.88 "Hg10 mi
5:53 PM61 °FOvercast.6 mph72%29.88 "Hg10 mi
4:53 PM62 °FClear.5 mph70%29.87 "Hg10 mi
3:53 PM64 °FScattered clouds.8 mph68%29.88 "Hg10 mi
2:53 PM66 °FPartly sunny.6 mph65%29.88 "Hg10 mi
1:53 PM68 °FPassing clouds.8 mph61%29.88 "Hg10 mi
12:53 PM68 °FScattered clouds.10 mph61%29.90 "Hg10 mi
11:53 AM70 °FScattered clouds.3 mph55%29.92 "Hg10 mi
10:53 AM68 °FPassing clouds.6 mph59%29.94 "Hg10 mi
9:53 AM68 °FScattered clouds.6 mph57%29.97 "Hg10 mi
8:53 AM64 °FPassing clouds.5 mph50%29.97 "Hg10 mi
7:53 AM58 °FOvercast.6 mph54%29.96 "Hg10 mi
6:53 AM54 °FPassing clouds.5 mph57%29.95 "Hg10 mi
5:53 AM54 °FPassing clouds.7 mph62%29.93 "Hg10 mi
4:53 AM54 °FOvercast.3 mph64%29.93 "Hg10 mi
Weather by CustomWeather, © 2015

See weather overviewHow to use our weather pages